User: anonymous   Login
Location: Unspecified
(0.0000°N, 0.0000°E)
Time: 14:18:13
(UTC+02:00)
Language:

Cosmos 1703 - Orbit

View from above orbital plane
View from above orbital plane
View from above satellite
View from above satellite

Ground track
Ground track

The orbit data is extracted from the following two-line orbital elements,

1 16262U 85108A   15149.00895533  .00002365  00000-0  15019-3 0  9997
2 16262 082.4970 265.5198 0007430 355.6629 004.4533 15.08421432605724
Epoch (UTC): 29 May 2015 00:12:53
Eccentricity: 0.0007430
inclination: 82.4970°
perigee height: 536 km
apogee height: 546 km
right ascension of ascending node: 265.5198°
argument of perigee: 355.6629°
revolutions per day: 15.08421432
mean anomaly at epoch: 4.4533°
orbit number at epoch: 60572

The dashed part of the orbit path shows where the satellite is in the earth's shadow,  

DLR